DW1256 Weather Reports


Display with metric or nautical units.
time (UTC)temp
F
wind
direction
speed
MPH
gust
MPH
rain 1hr
in
rain 24hr
in
rain mn
in
humidity
%
barometer
mb
20260904234237 92 275 0.0 0.0 0.00 0.00 0.00 51 1011.1
20260904233731 92 275 0.0 0.0 0.00 0.00 0.00 51 1011.1
20260904233226 92 275 0.0 0.0 0.00 0.00 0.00 52 1011.2
20260904232719 92 275 0.0 1.0 0.00 0.00 0.00 52 1011.2
20260904232214 92 275 0.0 3.0 0.00 0.00 0.00 51 1011.3
20260904231707 92 275 1.0 3.0 0.00 0.00 0.00 51 1011.3
20260904231208 92 281 1.0 3.0 0.00 0.00 0.00 52 1011.2
20260904225706 93 266 1.0 4.0 0.00 0.00 0.00 48 1010.9
20260904225207 93 296 1.0 3.0 0.00 0.00 0.00 48 1010.9
20260904224712 94 296 1.0 3.0 0.00 0.00 0.00 47 1010.9
20260904224209 94 297 2.0 4.0 0.00 0.00 0.00 47 1011.0
20260904223709 94 269 2.0 4.0 0.00 0.00 0.00 46 1010.9
20260904223206 94 279 3.0 8.0 0.00 0.00 0.00 45 1010.9
20260904222707 94 300 3.0 8.0 0.00 0.00 0.00 44 1010.9
20260904221706 95 265 3.0 8.0 0.00 0.00 0.00 44 1010.8
20260904220707 95 277 3.0 8.0 0.00 0.00 0.00 43 1010.8
20260904215701 96 233 3.0 9.0 0.00 0.00 0.00 42 1010.9
20260904215155 96 250 3.0 9.0 0.00 0.00 0.00 43 1010.9
20260904214648 96 298 3.0 8.0 0.00 0.00 0.00 43 1010.9
20260904214144 96 320 2.0 8.0 0.00 0.00 0.00 44 1010.9
20260904213637 96 243 3.0 4.0 0.00 0.00 0.00 44 1010.9
20260904213131 95 296 3.0 7.0 0.00 0.00 0.00 43 1011.0
20260904212624 95 257 2.0 7.0 0.00 0.00 0.00 42 1011.1
20260904212120 96 282 4.0 9.0 0.00 0.00 0.00 41 1011.1
20260904211614 96 293 4.0 9.0 0.00 0.00 0.00 42 1011.2
20260904210054 96 257 4.0 8.0 0.00 0.00 0.00 41 1011.2
20260904205548 97 277 4.0 9.0 0.00 0.00 0.00 39 1011.2
20260904203523 96 286 4.0 8.0 0.00 0.00 0.00 42 1011.5
20260904203016 96 292 4.0 10.0 0.00 0.00 0.00 40 1011.6
20260904202510 97 279 3.0 10.0 0.00 0.00 0.00 40 1011.6
20260904202005 97 290 2.0 5.0 0.00 0.00 0.00 41 1011.6
20260904201500 96 259 1.0 4.0 0.00 0.00 0.00 41 1011.7
20260904200952 96 293 1.0 6.0 0.00 0.00 0.00 41 1011.9
20260904200448 96 294 1.0 6.0 0.00 0.00 0.00 39 1011.9
20260904195940 98 281 1.0 6.0 0.00 0.00 0.00 40 1011.9
20260904195435 97 215 0.0 3.0 0.00 0.00 0.00 40 1011.9
20260904194930 97 248 0.0 1.0 0.00 0.00 0.00 40 1012.0
20260904194422 97 174 1.0 3.0 0.00 0.00 0.00 41 1012.0
20260904193921 97 261 2.0 8.0 0.00 0.00 0.00 40 1012.0
20260904193410 96 269 3.0 8.0 0.00 0.00 0.00 41 1012.1
20260904192904 97 329 2.0 7.0 0.00 0.00 0.00 41 1012.1
20260904192359 97 302 2.0 8.0 0.00 0.00 0.00 43 1012.2
20260904191855 96 281 1.0 8.0 0.00 0.00 0.00 41 1012.3
20260904191347 97 234 0.0 4.0 0.00 0.00 0.00 42 1012.4
20260904190844 97 235 1.0 4.0 0.00 0.00 0.00 42 1012.5
20260904185829 96 248 2.0 6.0 0.00 0.00 0.00 41 1012.8
20260904185325 95 254 3.0 7.0 0.00 0.00 0.00 44 1012.9
20260904184817 95 275 3.0 7.0 0.00 0.00 0.00 45 1012.9
20260904184311 95 290 3.0 8.0 0.00 0.00 0.00 44 1013.0
20260904183805 94 281 2.0 8.0 0.00 0.00 0.00 43 1013.1
20260904183300 95 286 2.0 7.0 0.00 0.00 0.00 45 1013.2
20260904182753 95 300 4.0 10.0 0.00 0.00 0.00 43 1013.2
20260904182247 95 321 4.0 10.0 0.00 0.00 0.00 42 1013.1
20260904181741 96 277 4.0 10.0 0.00 0.00 0.00 43 1013.1
20260904181235 95 281 4.0 10.0 0.00 0.00 0.00 44 1013.1
20260904175717 95 291 5.0 12.0 0.00 0.00 0.00 45 1013.3
20260904174705 95 285 4.0 12.0 0.00 0.00 0.00 43 1013.4
20260904174203 95 262 4.0 13.0 0.00 0.00 0.00 44 1013.4
20260904173653 94 274 5.0 13.0 0.00 0.00 0.00 44 1013.5
20260904173148 94 316 5.0 10.0 0.00 0.00 0.00 44 1013.5
20260904172641 94 273 4.0 10.0 0.00 0.00 0.00 44 1013.5
20260904172135 94 248 4.0 9.0 0.00 0.00 0.00 45 1013.5
20260904171629 94 253 4.0 9.0 0.00 0.00 0.00 47 1013.6
20260904171123 93 211 4.0 9.0 0.00 0.00 0.00 48 1013.6
20260904170617 93 291 3.0 9.0 0.00 0.00 0.00 47 1013.6
20260904170110 94 275 2.0 6.0 0.00 0.00 0.00 47 1013.6
20260904165605 92 218 2.0 7.0 0.00 0.00 0.00 49 1013.7
20260904165059 92 261 2.0 7.0 0.00 0.00 0.00 48 1013.7
20260904164553 92 305 2.0 7.0 0.00 0.00 0.00 49 1013.8
20260904164047 92 284 2.0 6.0 0.00 0.00 0.00 49 1013.9
20260904163541 92 211 2.0 6.0 0.00 0.00 0.00 49 1014.0
20260904163034 91 334 1.0 4.0 0.00 0.00 0.00 50 1014.0
20260904162529 91 263 1.0 4.0 0.00 0.00 0.00 49 1014.0
20260904161518 89 277 2.0 5.0 0.00 0.00 0.00 51 1014.1
20260904161011 89 303 2.0 7.0 0.00 0.00 0.00 52 1014.1
20260904160504 89 289 3.0 8.0 0.00 0.00 0.00 53 1014.0
20260904160001 89 282 3.0 8.0 0.00 0.00 0.00 52 1013.9
20260904155455 89 283 3.0 7.0 0.00 0.00 0.00 52 1014.0
20260904154946 89 280 3.0 8.0 0.00 0.00 0.00 52 1014.0
20260904154441 88 246 3.0 8.0 0.00 0.00 0.00 51 1013.9
20260904153934 89 259 3.0 8.0 0.00 0.00 0.00 52 1013.8
20260904152924 88 271 3.0 8.0 0.00 0.00 0.00 52 1013.8
20260904152417 88 310 3.0 7.0 0.00 0.00 0.00 53 1013.7
20260904151910 87 279 3.0 9.0 0.00 0.00 0.00 53 1013.7
20260904151405 87 254 3.0 9.0 0.00 0.00 0.00 53 1013.7
20260904150859 87 269 3.0 8.0 0.00 0.00 0.00 53 1013.7
20260904145847 87 277 3.0 8.0 0.00 0.00 0.00 53 1013.7
20260904145343 87 285 3.0 9.0 0.00 0.00 0.00 55 1013.7
20260904144329 88 269 3.0 8.0 0.00 0.00 0.00 53 1013.7
20260904143825 88 294 2.0 7.0 0.00 0.00 0.00 54 1013.6
20260904143316 87 257 2.0 6.0 0.00 0.00 0.00 56 1013.6
20260904142811 87 294 2.0 6.0 0.00 0.00 0.00 56 1013.5
20260904142306 87 246 2.0 7.0 0.00 0.00 0.00 56 1013.4
20260904141759 86 269 2.0 7.0 0.00 0.00 0.00 56 1013.4
20260904141252 85 273 2.0 8.0 0.00 0.00 0.00 56 1013.4
20260904140748 85 248 3.0 7.0 0.00 0.00 0.00 57 1013.3
20260904140241 85 277 3.0 8.0 0.00 0.00 0.00 58 1013.3
20260904135735 84 283 2.0 8.0 0.00 0.00 0.00 58 1013.2
20260904135230 84 148 1.0 4.0 0.00 0.00 0.00 59 1013.2
20260904134723 83 232 1.0 4.0 0.00 0.00 0.00 59 1013.2
20260904134217 83 169 1.0 4.0 0.00 0.00 0.00 61 1013.2
20260904133713 83 177 1.0 7.0 0.00 0.00 0.00 61 1013.2
20260904133205 82 196 1.0 7.0 0.00 0.00 0.00 61 1013.2
20260904132659 81 184 0.0 4.0 0.00 0.00 0.00 62 1013.1
20260904132154 80 166 0.0 1.0 0.00 0.00 0.00 64 1013.1
20260904131647 80 159 0.0 1.0 0.00 0.00 0.00 66 1013.1
20260904130634 78 221 0.0 2.0 0.00 0.00 0.00 70 1012.9
20260904125623 77 0 0.0 3.0 0.00 0.00 0.00 71 1012.8
20260904125118 76 0 0.0 0.0 0.00 0.00 0.00 71 1012.8
20260904124105 76 0 1.0 4.0 0.00 0.00 0.00 71 1012.7
20260904123601 75 0 1.0 4.0 0.00 0.00 0.00 71 1012.6
20260904123059 75 0 1.0 4.0 0.00 0.00 0.00 71 1012.6
20260904122601 75 0 1.0 4.0 0.00 0.00 0.00 71 1012.6
20260904121601 74 0 1.0 4.0 0.00 0.00 0.00 71 1012.6
20260904120600 74 0 0.0 3.0 0.00 0.00 0.00 71 1012.6
20260904115100 74 0 0.0 0.0 0.00 0.00 0.00 71 1012.4
20260904114559 74 173 0.0 0.0 0.00 0.00 0.00 71 1012.3
20260904114059 74 173 0.0 0.0 0.00 0.00 0.00 70 1012.4
20260904113058 74 173 0.0 0.0 0.00 0.00 0.00 70 1012.3
20260904112556 74 174 0.0 0.0 0.00 0.00 0.00 70 1012.3
20260904112056 74 173 0.0 0.0 0.00 0.00 0.00 70 1012.3
20260904111600 74 173 0.0 0.0 0.00 0.00 0.00 70 1012.2
20260904110555 74 173 0.0 0.0 0.00 0.00 0.00 70 1012.2
20260904110049 75 173 0.0 0.0 0.00 0.00 0.00 70 1012.3
20260904104025 75 196 0.0 0.0 0.00 0.00 0.00 70 1012.3
20260904103012 75 196 0.0 0.0 0.00 0.00 0.00 70 1012.3
20260904102509 75 200 0.0 0.0 0.00 0.00 0.00 70 1012.4
20260904101454 75 204 0.0 0.0 0.00 0.00 0.00 70 1012.4
20260904100949 75 0 0.0 0.0 0.00 0.00 0.00 70 1012.4
20260904095936 75 200 0.0 0.0 0.00 0.00 0.00 70 1012.4
20260904094419 75 262 0.0 0.0 0.00 0.00 0.00 70 1012.4
20260904093405 76 262 0.0 0.0 0.00 0.00 0.00 70 1012.5
20260904092901 76 229 0.0 0.0 0.00 0.00 0.00 70 1012.4
20260904092353 76 229 0.0 0.0 0.00 0.00 0.00 70 1012.5
20260904091341 76 231 0.0 0.0 0.00 0.00 0.00 70 1012.5
20260904090836 76 231 0.0 0.0 0.00 0.00 0.00 70 1012.5
20260904090330 76 172 0.0 0.0 0.00 0.00 0.00 70 1012.4
20260904085823 76 172 0.0 0.0 0.00 0.00 0.00 70 1012.5
20260904085318 76 172 0.0 0.0 0.00 0.00 0.00 70 1012.5
20260904084307 76 172 0.0 0.0 0.00 0.00 0.00 70 1012.4
20260904083803 76 172 0.0 0.0 0.00 0.00 0.00 70 1012.4
20260904083253 76 172 0.0 0.0 0.00 0.00 0.00 70 1012.3
20260904082748 76 172 0.0 3.0 0.00 0.00 0.00 70 1012.3
20260904082242 76 0 0.0 3.0 0.00 0.00 0.00 70 1012.3
20260904081735 76 182 0.0 2.0 0.00 0.00 0.00 70 1012.2
20260904081229 76 199 1.0 3.0 0.00 0.00 0.00 70 1012.1
20260904080218 76 176 0.0 2.0 0.00 0.00 0.00 70 1012.0
20260904075712 77 175 0.0 2.0 0.00 0.00 0.00 70 1012.1
20260904075206 77 255 0.0 2.0 0.00 0.00 0.00 70 1012.1
20260904073647 77 183 1.0 4.0 0.00 0.00 0.00 70 1012.2
20260904073142 77 178 1.0 4.0 0.00 0.00 0.00 70 1012.3
20260904072637 77 157 1.0 4.0 0.00 0.00 0.00 70 1012.4
20260904072129 77 157 2.0 4.0 0.00 0.00 0.00 70 1012.4
20260904071117 77 177 2.0 5.0 0.00 0.00 0.00 70 1012.5
20260904070613 77 169 1.0 5.0 0.00 0.00 0.00 70 1012.5
20260904070114 77 166 1.0 5.0 0.00 0.00 0.00 70 1012.6
20260904065612 77 186 1.0 4.0 0.00 0.00 0.00 70 1012.6
20260904065115 77 184 1.0 4.0 0.00 0.00 0.00 70 1012.7
20260904064613 77 183 0.0 4.0 0.00 0.00 0.00 70 1012.7
20260904063612 77 153 0.0 0.0 0.00 0.00 0.00 70 1012.7
20260904063114 77 182 1.0 5.0 0.00 0.00 0.00 70 1012.7
20260904062613 77 182 2.0 5.0 0.00 0.00 0.00 70 1012.7
20260904061614 77 132 2.0 4.0 0.00 0.00 0.00 70 1012.7
20260904061113 77 169 2.0 4.0 0.00 0.00 0.00 70 1012.7
20260904060613 77 138 2.0 4.0 0.00 0.00 0.00 70 1012.8
20260904060112 77 145 2.0 4.0 0.00 0.00 0.00 70 1012.8
20260904055615 77 145 2.0 4.0 0.00 0.00 0.00 70 1012.8
20260904055109 77 171 1.0 4.0 0.00 0.00 0.00 70 1012.8
20260904054600 77 155 2.0 4.0 0.00 0.00 0.00 70 1012.9
20260904054055 78 155 2.0 4.0 0.00 0.00 0.00 70 1012.8
20260904053550 78 153 2.0 5.0 0.00 0.00 0.00 69 1012.8
20260904053049 78 151 2.0 5.0 0.00 0.00 0.00 69 1012.8
20260904052549 78 155 2.0 5.0 0.00 0.00 0.00 69 1012.8
20260904052050 78 160 1.0 4.0 0.00 0.00 0.00 69 1012.8
20260904051049 78 163 0.0 0.0 0.00 0.00 0.00 69 1012.8
20260904050547 78 163 0.0 0.0 0.00 0.00 0.00 68 1012.9
20260904050054 78 164 0.0 3.0 0.00 0.00 0.00 68 1012.8
20260904045546 79 163 1.0 4.0 0.00 0.00 0.00 68 1012.8
20260904045044 79 180 0.0 4.0 0.00 0.00 0.00 68 1012.9
20260904044041 79 142 0.0 0.0 0.00 0.00 0.00 68 1012.8
20260904043542 79 144 0.0 0.0 0.00 0.00 0.00 68 1012.8
20260904042538 79 157 0.0 0.0 0.00 0.00 0.00 67 1012.8
20260904041033 80 155 1.0 4.0 0.00 0.00 0.00 67 1012.8
20260904040534 80 175 1.0 4.0 0.00 0.00 0.00 66 1012.7
20260904035531 80 141 2.0 5.0 0.00 0.00 0.00 66 1012.6
20260904035030 80 131 1.0 4.0 0.00 0.00 0.00 66 1012.7
20260904034531 81 139 0.0 3.0 0.00 0.00 0.00 66 1012.6
20260904034033 81 142 0.0 0.0 0.00 0.00 0.00 65 1012.6
20260904033531 81 129 0.0 1.0 0.00 0.00 0.00 65 1012.7
20260904033030 81 158 1.0 4.0 0.00 0.00 0.00 65 1012.6
20260904032530 81 163 1.0 4.0 0.00 0.00 0.00 65 1012.5
20260904032027 81 115 0.0 2.0 0.00 0.00 0.00 65 1012.5
20260904031524 81 115 0.0 2.0 0.00 0.00 0.00 65 1012.5
20260904025524 82 220 1.0 3.0 0.00 0.00 0.00 64 1012.5
20260904025025 82 155 1.0 5.0 0.00 0.00 0.00 64 1012.5
20260904024525 82 147 1.0 5.0 0.00 0.00 0.00 64 1012.5
20260904024028 82 146 1.0 6.0 0.00 0.00 0.00 64 1012.5
20260904023522 82 148 2.0 6.0 0.00 0.00 0.00 64 1012.4
20260904023022 83 152 1.0 4.0 0.00 0.00 0.00 63 1012.5
20260904022521 83 153 1.0 4.0 0.00 0.00 0.00 63 1012.5
20260904021522 83 159 1.0 4.0 0.00 0.00 0.00 63 1012.4
20260904021021 83 148 1.0 5.0 0.00 0.00 0.00 63 1012.5
20260904020521 83 162 1.0 5.0 0.00 0.00 0.00 63 1012.4
20260904020023 83 160 1.0 4.0 0.00 0.00 0.00 63 1012.4
20260904015522 83 155 0.0 3.0 0.00 0.00 0.00 63 1012.3
20260904015017 83 155 0.0 2.0 0.00 0.00 0.00 63 1012.3
20260904014516 83 155 0.0 2.0 0.00 0.00 0.00 63 1012.4
20260904014019 84 163 0.0 4.0 0.00 0.00 0.00 63 1012.4
20260904013517 84 163 1.0 4.0 0.00 0.00 0.00 63 1012.3
20260904013018 84 164 0.0 4.0 0.00 0.00 0.00 63 1012.2
20260904012021 85 170 0.0 1.0 0.00 0.00 0.00 63 1012.0
20260904011517 85 170 0.0 0.0 0.00 0.00 0.00 62 1012.0
20260904010515 86 170 0.0 0.0 0.00 0.00 0.00 60 1012.0
20260904010013 86 170 0.0 2.0 0.00 0.00 0.00 60 1011.9
20260904005513 86 170 1.0 4.0 0.00 0.00 0.00 60 1011.8
20260904005012 87 169 1.0 4.0 0.00 0.00 0.00 60 1011.7
20260904004515 87 166 1.0 4.0 0.00 0.00 0.00 59 1011.7
20260904004015 87 166 1.0 3.0 0.00 0.00 0.00 59 1011.7
20260904003516 87 0 1.0 4.0 0.00 0.00 0.00 58 1011.7
20260904003016 88 165 1.0 4.0 0.00 0.00 0.00 58 1011.6
20260904002012 88 163 1.0 2.0 0.00 0.00 0.00 58 1011.6
20260904001512 89 163 0.0 2.0 0.00 0.00 0.00 57 1011.6
20260904001012 89 127 0.0 0.0 0.00 0.00 0.00 57 1011.7
20260904000011 90 198 0.0 0.0 0.00 0.00 0.00 55 1011.7
20260903235510 91 198 0.0 0.0 0.00 0.00 0.00 54 1011.9
20260903235011 92 198 0.0 0.0 0.00 0.00 0.00 53 1011.9